Location: Newark
(13.0000°N, 105.0000°E)
Time: 21:04:17
(UTC+00:00)

Hubble Space Telescope - Visible Passes

Search period start: 21 October 2019 00:00
Search period end: 31 October 2019 00:00
Orbit: 536 x 540 km, 28.5° (Epoch: 20 October)

Date Brightness Start Highest point End Pass type
(mag) Time Alt. Az. Time Alt. Az. Time Alt. Az.
21 Oct 3.4 21:53:14 10° S 21:55:53 16° SSE 21:58:31 10° ESE visible
22 Oct 2.9 21:42:01 10° SSW 21:45:17 23° SSE 21:48:33 10° E visible
23 Oct 2.3 21:32:07 16° SSW 21:34:42 31° SSE 21:38:22 10° E visible
24 Oct 1.7 21:22:56 34° SSW 21:24:07 44° SSE 21:28:02 10° ENE visible
25 Oct 1.1 21:13:40 62° SE 21:13:40 62° SE 21:17:35 10° ENE visible
26 Oct 1.8 21:04:18 41° ENE 21:04:18 41° ENE 21:07:04 10° ENE visible
27 Oct 2.8 20:54:49 23° NE 20:54:49 23° NE 20:56:29 10° ENE visible
27 Oct 2.5 22:31:01 10° WNW 22:33:51 18° NNW 22:36:42 10° NNE visible
28 Oct 3.5 20:45:15 13° NE 20:45:15 13° NE 20:45:50 10° NE visible
28 Oct 2.8 22:21:00 10° NW 22:23:25 15° NNW 22:25:50 10° NNE visible
29 Oct 2.9 22:11:04 10° NW 22:13:00 13° NNW 22:14:56 10° NNE visible
30 Oct 3.0 22:01:17 10° NNW 22:02:36 11° N 22:03:56 10° N visible
